Погода в Зянгиа

Вьетнам     12°00′27″N   107°41′03″E
темп.,
°C
ветер,
м/с
пор.,
м/с
влажн.,
%
обл.,
%
осадки,
мм/ч
давл.,
гПа
погр.,
м
27 января, чт
чт2701:00+16всв11905 0.0 101227
04:00+15всв11945 0.0 101234
07:00+16всв138499 0.0 101380
10:00+27св2531100 0.0 10131156
13:00+30ссв33265 0.0 10092099
16:00+29ссв32274 0.0 10071933
19:00+20св24565 0.0 101176
22:00+16всв117439 0.0 101311
28 января, пт
пт2801:00+15всв1181100 0.0 101228
04:00+14всв1185100 0.0 101219
07:00+15в117354 0.0 101336
10:00+29ссв13274 0.0 10131031
13:00+32ссв32225 0.0 10092587
16:00+31ссв222585 0.0 10072593
19:00+21юв0053100 0.0 101112
22:00+18всв116897 0.0 101311
29 января, сб
сб2901:00+17св0076100 0.0 101211
04:00+15св008499 0.0 101111
07:00+17св11809 0.0 101333
10:00+29з114013 0.0 10121113
13:00+33в012477 0.0 10082499
16:00+32ююз022699 0.0 10052302
19:00+24з005375 0.0 100812
22:00+19св007295 0.0 101111
30 января, вс
вс3001:00+17в0084100 0.0 101011
04:00+17св009155 0.0 101011
07:00+18всв118617 0.0 101142
10:00+29ссв014485 0.0 10111186
13:00+33ююв1130100 0.0 10072763
16:00+29сз1339100 0.0 1006881
19:00+23всв0169100 0.2 100934
22:00+22ю007397 0.0 101115
31 января, пн
пн3101:00+21юв007874 0.0 101017
04:00+19ссв008735 0.0 100912
07:00+19всв118758 0.0 101248
10:00+29всв0149100 0.0 10121349
13:00+24сз247799 0.8 1009296
16:00+24ю019156 2.8 100890
19:00+20всв119646 5.2 101114
22:00+19в119824 0.1 101215